Laramie, WY

11:31 AM MST on January 16, 2018 (GMT -0700)
Laramie Regional

Weather History for KLAR - October, 2013

Change the Weather History Date:

Monday, October 28, 2013

  Actual Average Record
Temperature  
Mean Temperature 34 °F 38 °F  
Max Temperature 44 °F 51 °F 70 °F (1968)
Min Temperature 24 °F 25 °F 0 °F (1996)
Degree Days  
Heating Degree Days 31 27  
Month to date heating degree days 715 631  
Since 1 July heating degree days 1039 1156  
Cooling Degree Days 0 0  
Month to date cooling degree days 0 0  
Year to date cooling degree days 162 67  
Moisture  
Dew Point 25 °F    
Average Humidity 79    
Maximum Humidity 100    
Minimum Humidity 57    
Precipitation  
Precipitation T in 0.02 in 1.14 in (1998)
Month to date precipitation 1.14 0.74  
Year to date precipitation 10.52 10.00  
Sea Level Pressure  
Sea Level Pressure 29.87 in    
Wind  
Wind Speed 21 mph (SSE)    
Max Wind Speed 37 mph    
Max Gust Speed 41 mph    
Visibility 8 miles    
Events      
T = Trace of Precipitation, MM = Missing Value Source: NWS Daily Summary

Daily Weather History Graph

Daily Weather History Graph

Search for Another Location

Airport or City:

Trip Planner

Search our weather history database for the weather conditions in past years. The results will help you decide how hot, cold, wet, or windy it might be!

Date:

Astronomy

Oct. 28, 2013 Rise Set
Actual Time 7:29 AM MDT 6:02 PM MDT
Civil Twilight 7:01 AM MDT 6:31 PM MDT
Nautical Twilight 6:28 AM MDT 7:03 PM MDT
Astronomical Twilight 5:56 AM MDT 7:35 PM MDT
Moon 1:21 AM MDT (10/28) 2:49 PM MDT (10/28)
Length of Visible Light 11h 29m
Length of Day
10h 32m
Waning Crescent, 33% of the Moon is Illuminated
Oct 28
Waning Crescent
Nov 3
New
Nov 9
First Quarter
Nov 17
Full
Nov 25
Last Quarter

Hourly Weather History & Observations

Time (MDT) Temp. Windchill Dew Point Humidity Pressure Visibility Wind Dir Wind Speed Gust Speed Precip Events Conditions
12:53 AM 36.0 °F 30.3 °F 27.0 °F 70% 29.77 in 10.0 mi South 6.9 mph - N/A   Partly Cloudy
1:53 AM 39.9 °F 34.5 °F 28.9 °F 65% 29.75 in 10.0 mi South 8.1 mph - N/A   Overcast
2:53 AM 42.1 °F 37.7 °F 28.9 °F 60% 29.74 in 10.0 mi South 6.9 mph - 0.00 in   Overcast
3:53 AM 39.9 °F 34.5 °F 28.0 °F 63% 29.74 in 10.0 mi South 8.1 mph - N/A   Overcast
4:53 AM 36.0 °F 27.5 °F 26.1 °F 67% 29.76 in 10.0 mi SE 12.7 mph - N/A   Scattered Clouds
5:53 AM 34.0 °F 28.0 °F 27.0 °F 75% 29.82 in 10.0 mi NE 6.9 mph - N/A   Mostly Cloudy
6:53 AM 39.9 °F 32.1 °F 26.1 °F 58% 29.83 in 10.0 mi SE 13.8 mph - N/A   Overcast
7:53 AM 35.1 °F 24.1 °F 27.0 °F 72% 29.91 in 10.0 mi South 19.6 mph 29.9 mph N/A   Overcast
8:53 AM 34.0 °F 26.0 °F 28.0 °F 79% 29.91 in 10.0 mi South 10.4 mph - N/A   Mostly Cloudy
9:53 AM 33.1 °F 20.3 °F 28.0 °F 82% 29.93 in 10.0 mi SSE 24.2 mph 28.8 mph N/A   Scattered Clouds
10:53 AM 35.1 °F 22.7 °F 28.0 °F 76% 29.90 in 10.0 mi SSE 25.3 mph 31.1 mph N/A   Scattered Clouds
11:27 AM 37.4 °F 28.5 °F 28.4 °F 70% 29.96 in 10.0 mi SSE 15.0 mph 20.7 mph N/A   Mostly Cloudy
11:53 AM 37.0 °F 27.4 °F 28.0 °F 70% 29.90 in 10.0 mi SSE 17.3 mph - N/A   Mostly Cloudy
12:33 PM 37.4 °F 26.6 °F 28.4 °F 70% 29.93 in 10.0 mi SSE 21.9 mph 28.8 mph N/A   Scattered Clouds
12:53 PM 36.0 °F 26.3 °F 28.0 °F 73% 29.87 in 10.0 mi SSE 16.1 mph 26.5 mph N/A   Partly Cloudy
1:53 PM 35.1 °F 23.3 °F 27.0 °F 72% 29.81 in 10.0 mi SSE 23.0 mph 34.5 mph N/A   Clear
2:12 PM 33.8 °F 21.6 °F 26.6 °F 75% 29.89 in 10.0 mi SSE 23.0 mph - N/A   Partly Cloudy
2:39 PM 33.8 °F 21.6 °F 26.6 °F 75% 29.89 in 10.0 mi SE 23.0 mph - N/A   Mostly Cloudy
2:53 PM 33.1 °F 20.6 °F 26.1 °F 75% 29.80 in 10.0 mi SSE 23.0 mph - N/A   Scattered Clouds
3:53 PM 30.9 °F 16.2 °F 25.0 °F 79% 29.83 in 10.0 mi SSE 29.9 mph 34.5 mph N/A   Scattered Clouds
4:22 PM 30.2 °F 15.4 °F 24.8 °F 80% 29.89 in 10.0 mi SE 28.8 mph 32.2 mph N/A   Partly Cloudy
4:53 PM 28.9 °F 15.1 °F 24.1 °F 82% 29.85 in 10.0 mi SSE 23.0 mph 29.9 mph N/A   Clear
5:53 PM 26.1 °F 11.3 °F 23.0 °F 88% 29.89 in 10.0 mi South 23.0 mph 33.4 mph N/A   Clear
6:22 PM 24.8 °F 7.9 °F 23.0 °F 93% 29.87 in 10.0 mi SSE 29.9 mph 36.8 mph N/A   Partly Cloudy
6:53 PM 25.0 °F 8.1 °F 23.0 °F 92% 29.86 in 10.0 mi SSE 29.9 mph 41.4 mph N/A   Partly Cloudy
7:09 PM 24.8 °F 7.9 °F 23.0 °F 93% 29.90 in 10.0 mi SSE 29.9 mph 38.0 mph N/A   Mostly Cloudy
7:23 PM 24.8 °F 7.1 °F 21.2 °F 86% 29.90 in 10.0 mi SSE 33.4 mph 40.3 mph N/A   Scattered Clouds
7:43 PM 24.8 °F 8.4 °F 23.0 °F 93% 29.91 in 10.0 mi SSE 27.6 mph 32.2 mph N/A   Mostly Cloudy
7:53 PM 25.0 °F 8.1 °F 23.0 °F 92% 29.92 in 10.0 mi SSE 29.9 mph 36.8 mph N/A   Overcast
8:53 PM 25.0 °F 7.8 °F 23.0 °F 92% 29.92 in 6.0 mi SE 31.1 mph 38.0 mph N/A   Overcast
9:16 PM 24.8 °F 7.9 °F 23.0 °F 93% 29.90 in 1.8 mi SSE 29.9 mph 36.8 mph N/A   Overcast
9:49 PM 24.8 °F 7.9 °F 23.0 °F 93% 29.90 in 4.0 mi SSE 29.9 mph 35.7 mph N/A   Overcast
9:53 PM 24.1 °F 6.6 °F 23.0 °F 96% 29.92 in 7.0 mi SSE 31.1 mph 35.7 mph N/A   Overcast
10:49 PM 24.8 °F 10.3 °F 23.0 °F 93% 29.92 in 2.5 mi SSE 20.7 mph 33.4 mph N/A   Overcast
10:53 PM 25.0 °F 10.6 °F 23.0 °F 92% 29.93 in 4.0 mi SSE 20.7 mph 29.9 mph N/A   Overcast
11:06 PM 24.8 °F 8.1 °F 23.0 °F 93% 29.90 in 2.0 mi SSE 28.8 mph 34.5 mph N/A   Overcast
11:18 PM 24.8 °F 8.1 °F 23.0 °F 93% 29.90 in 1.2 mi SE 28.8 mph 34.5 mph N/A   Overcast
11:53 PM 25.0 °F 9.9 °F 24.1 °F 96% 29.90 in 1.2 mi SSE 23.0 mph 29.9 mph N/A   Overcast